CW4490 Weather Reports


Display with metric or nautical units.
time (UTC)temp
F
wind
direction
speed
MPH
gust
MPH
rain 1hr
in
rain 24hr
in
rain mn
in
humidity
%
barometer
mb
20260506210947 61 20 7.0 12.0 0.00 0.02 0.02 81 1008.0
20260506210444 61 355 6.0 13.0 0.00 0.02 0.02 80 1008.0
20260506205439 60 326 8.0 14.0 0.00 0.02 0.02 81 1008.2
20260506204926 60 298 9.0 14.0 0.00 0.02 0.02 81 1008.2
20260506204433 60 292 7.0 17.0 0.00 0.02 0.02 81 1008.2
20260506203428 61 314 7.0 15.0 0.00 0.02 0.02 80 1008.3
20260506202912 61 355 10.0 15.0 0.00 0.02 0.02 80 1008.2
20260506202438 61 244 8.0 17.0 0.00 0.02 0.02 80 1008.2
20260506200859 61 319 10.0 15.0 0.00 0.02 0.02 80 1007.9
20260506200355 62 312 9.0 17.0 0.00 0.02 0.02 80 1007.9
20260506195859 62 344 9.0 17.0 0.00 0.02 0.02 79 1007.8
20260506194858 62 360 9.0 19.0 0.00 0.02 0.02 79 1007.8
20260506194403 63 326 11.0 19.0 0.00 0.02 0.02 79 1007.7
20260506193847 63 360 9.0 16.0 0.00 0.02 0.02 79 1007.7
20260506192838 63 319 8.0 17.0 0.00 0.02 0.02 80 1007.8
20260506192405 63 322 11.0 17.0 0.00 0.02 0.02 80 1007.8
20260506192009 64 348 7.0 16.0 0.00 0.02 0.02 80 1007.8
20260506191452 64 311 9.0 16.0 0.00 0.02 0.02 80 1007.8
20260506191017 65 355 5.0 13.0 0.00 0.02 0.02 81 1007.9
20260506185940 64 313 9.0 14.0 0.00 0.02 0.02 81 1008.0
20260506185427 64 20 6.0 17.0 0.00 0.02 0.02 81 1008.0
20260506184954 64 310 8.0 17.0 0.00 0.02 0.02 81 1008.0
20260506183415 68 17 12.0 18.0 0.00 0.02 0.02 77 1007.6
20260506182922 70 342 9.0 17.0 0.00 0.02 0.02 76 1007.0
20260506181406 73 360 7.0 12.0 0.00 0.02 0.02 74 1007.2
20260506180932 73 306 5.0 12.0 0.00 0.02 0.02 75 1007.2
20260506180405 73 355 4.0 11.0 0.00 0.02 0.02 75 1007.2
20260506175418 72 9 4.0 6.0 0.00 0.02 0.02 77 1007.0
20260506174845 72 196 4.0 9.0 0.00 0.02 0.02 77 1007.0
20260506174410 71 346 3.0 9.0 0.00 0.02 0.02 78 1006.7
20260506173343 71 36 4.0 10.0 0.00 0.02 0.02 79 1006.7
20260506172833 70 360 5.0 10.0 0.00 0.02 0.02 80 1006.7
20260506172338 69 87 2.0 6.0 0.00 0.02 0.02 81 1006.7
20260506171952 69 94 3.0 8.0 0.00 0.02 0.02 81 1006.7
20260506171436 68 102 4.0 8.0 0.00 0.02 0.02 83 1006.7
20260506170441 67 32 2.0 10.0 0.01 0.02 0.02 84 1006.7
20260506165927 66 360 4.0 7.0 0.02 0.02 0.02 85 1006.8
20260506165433 65 55 3.0 9.0 0.02 0.02 0.02 86 1006.8
20260506164940 65 360 4.0 9.0 0.02 0.02 0.02 87 1006.8
20260506163917 63 88 2.0 7.0 0.02 0.02 0.02 88 1007.2
20260506163442 63 360 3.0 7.0 0.02 0.02 0.02 88 1007.2
20260506162909 62 56 5.0 7.0 0.02 0.02 0.02 88 1008.1
20260506162415 62 329 4.0 7.0 0.02 0.02 0.02 88 1008.1
20260506160858 61 355 4.0 10.0 0.01 0.01 0.01 87 1008.2
20260506160356 61 44 4.0 9.0 0.01 0.01 0.01 86 1008.2
20260506155900 61 329 4.0 12.0 0.00 0.00 0.00 86 1008.2
20260506154853 61 310 8.0 12.0 0.00 0.00 0.00 86 1008.2
20260506154359 61 328 6.0 14.0 0.00 0.00 0.00 86 1008.2
20260506153843 61 327 8.0 16.0 0.00 0.00 0.00 85 1008.2
20260506153349 62 350 7.0 16.0 0.00 0.00 0.00 85 1008.2
20260506152339 63 315 9.0 16.0 0.00 0.00 0.00 85 1007.8
20260506151438 64 303 8.0 16.0 0.00 0.00 0.00 86 1007.8
20260506150946 65 336 6.0 14.0 0.00 0.00 0.00 86 1007.8
20260506150443 65 355 6.0 14.0 0.00 0.00 0.00 86 1007.8
20260506145949 65 329 7.0 14.0 0.00 0.00 0.00 86 1006.9
20260506145434 65 15 4.0 13.0 0.00 0.00 0.00 86 1006.9
20260506144922 66 17 5.0 13.0 0.00 0.00 0.00 86 1006.9
20260506144427 66 16 5.0 14.0 0.00 0.00 0.00 86 1006.3
20260506143914 67 360 8.0 16.0 0.00 0.00 0.00 86 1006.4
20260506143422 67 296 11.0 15.0 0.00 0.00 0.00 86 1006.4
20260506142908 68 333 6.0 14.0 0.00 0.00 0.00 86 1005.4
20260506142416 69 49 4.0 14.0 0.00 0.00 0.00 86 1005.4
20260506141903 70 302 6.0 12.0 0.00 0.00 0.00 85 1005.4
20260506141407 71 327 5.0 15.0 0.00 0.00 0.00 83 1004.8
20260506140854 74 333 9.0 15.0 0.00 0.00 0.00 81 1004.9
20260506140353 76 17 0.0 4.0 0.00 0.00 0.00 86 1005.0
20260506135900 76 107 1.0 4.0 0.00 0.00 0.00 86 1005.1
20260506135347 76 131 0.0 1.0 0.00 0.00 0.00 87 1005.1
20260506134915 76 126 0.0 5.0 0.00 0.00 0.00 88 1005.1
20260506134339 76 163 0.0 5.0 0.00 0.00 0.00 88 1004.8
20260506133846 75 78 0.0 4.0 0.00 0.00 0.00 88 1004.8
20260506133334 75 160 0.0 1.0 0.00 0.00 0.00 88 1004.8
20260506132839 75 160 0.0 1.0 0.00 0.00 0.00 88 1004.6
20260506132408 75 160 0.0 1.0 0.00 0.00 0.00 89 1004.6
20260506131446 75 159 0.0 3.0 0.00 0.00 0.00 89 1004.2
20260506130933 75 142 0.0 3.0 0.00 0.00 0.00 89 1004.2
20260506130431 75 141 0.0 5.0 0.00 0.00 0.00 90 1004.2
20260506125936 74 142 1.0 5.0 0.00 0.00 0.00 90 1004.2
20260506125425 74 195 0.0 2.0 0.00 0.00 0.00 90 1004.2
20260506124933 74 177 1.0 2.0 0.00 0.00 0.00 90 1004.2
20260506124419 74 187 0.0 0.0 0.00 0.00 0.00 90 1004.0
20260506123946 74 189 0.0 0.0 0.00 0.00 0.00 90 1004.0
20260506123432 74 189 0.0 0.0 0.00 0.00 0.00 89 1004.0
20260506122916 73 189 0.0 2.0 0.00 0.00 0.00 89 1003.8
20260506122423 73 199 0.0 2.0 0.00 0.00 0.00 89 1003.8
20260506121910 73 200 0.0 1.0 0.00 0.00 0.00 89 1003.8
20260506121416 73 153 0.0 0.0 0.00 0.00 0.00 89 1003.9
20260506120905 73 153 0.0 0.0 0.00 0.00 0.00 89 1003.9
20260506120404 73 153 0.0 0.0 0.00 0.00 0.00 89 1003.9
20260506115851 74 180 0.0 0.0 0.00 0.00 0.00 89 1003.9
20260506115358 74 178 0.0 0.0 0.00 0.00 0.00 89 1003.9
20260506114850 74 177 0.0 0.0 0.00 0.00 0.00 89 1003.9
20260506114355 74 176 0.0 0.0 0.00 0.00 0.00 89 1003.9
20260506113840 74 175 0.0 0.0 0.00 0.00 0.00 89 1003.9
20260506113347 74 175 0.0 0.0 0.00 0.00 0.00 88 1003.9
20260506112832 74 175 0.0 0.0 0.00 0.00 0.00 88 1004.1
20260506112339 74 175 0.0 0.0 0.00 0.00 0.00 88 1004.1
20260506111846 74 175 0.0 0.0 0.00 0.00 0.00 88 1004.1
20260506111455 74 174 0.0 0.0 0.00 0.00 0.00 88 1004.2
20260506110944 74 174 0.0 0.0 0.00 0.00 0.00 88 1004.2
20260506110442 74 174 0.0 0.0 0.00 0.00 0.00 88 1004.2
20260506105946 74 174 0.0 0.0 0.00 0.00 0.00 88 1004.0
20260506105434 74 173 0.0 0.0 0.00 0.00 0.00 87 1004.0
20260506105003 74 178 0.0 0.0 0.00 0.00 0.00 87 1004.0
20260506104448 74 176 0.0 0.0 0.00 0.00 0.00 87 1003.9
20260506103934 74 175 0.0 0.0 0.00 0.00 0.00 87 1003.9
20260506103421 75 175 0.0 0.0 0.00 0.00 0.00 87 1003.9
20260506102927 75 175 0.0 0.0 0.00 0.00 0.00 87 1003.8
20260506102413 75 175 0.0 0.0 0.00 0.00 0.00 86 1003.8
20260506101943 75 175 0.0 0.0 0.00 0.00 0.00 86 1003.8
20260506101408 75 175 0.0 1.0 0.00 0.00 0.00 86 1003.4
20260506100857 75 175 0.0 1.0 0.00 0.00 0.00 86 1003.4
20260506100408 75 174 0.0 0.0 0.00 0.00 0.00 86 1003.4
20260506095859 75 185 0.0 3.0 0.00 0.00 0.00 86 1003.5
20260506095406 75 188 0.0 3.0 0.00 0.00 0.00 86 1003.5
20260506094854 75 174 0.0 3.0 0.00 0.00 0.00 86 1003.5
20260506094340 75 174 0.0 9.0 0.00 0.00 0.00 85 1003.2
20260506093847 75 166 2.0 9.0 0.00 0.00 0.00 85 1003.2
20260506093354 75 200 0.0 3.0 0.00 0.00 0.00 85 1003.2
20260506092838 75 200 0.0 4.0 0.00 0.00 0.00 85 1002.9
20260506092404 75 198 1.0 4.0 0.00 0.00 0.00 85 1002.9
20260506091831 75 161 2.0 4.0 0.00 0.00 0.00 85 1002.9
20260506091514 75 170 1.0 4.0 0.00 0.00 0.00 85 1002.9
20260506090937 75 140 0.0 5.0 0.00 0.00 0.00 85 1002.9
20260506090458 75 218 1.0 7.0 0.00 0.00 0.00 85 1002.9
20260506085943 75 179 1.0 7.0 0.00 0.00 0.00 85 1002.7
20260506085449 75 171 1.0 7.0 0.00 0.00 0.00 85 1002.7
20260506084934 75 182 3.0 7.0 0.00 0.00 0.00 84 1002.7
20260506084421 75 275 1.0 6.0 0.00 0.00 0.00 84 1002.8
20260506083927 75 191 3.0 6.0 0.00 0.00 0.00 84 1002.8
20260506083414 75 227 1.0 5.0 0.00 0.00 0.00 84 1002.8
20260506082921 75 225 1.0 7.0 0.00 0.00 0.00 84 1002.8
20260506082413 75 180 1.0 8.0 0.00 0.00 0.00 84 1002.8
20260506081919 75 184 3.0 9.0 0.00 0.00 0.00 84 1002.8
20260506081404 75 238 1.0 9.0 0.00 0.00 0.00 84 1002.9
20260506080911 75 206 2.0 10.0 0.00 0.00 0.00 84 1002.9
20260506080402 75 191 3.0 10.0 0.00 0.00 0.00 84 1002.9
20260506073349 75 194 1.0 10.0 0.00 0.00 0.00 84 1003.0
20260506072836 76 140 2.0 10.0 0.00 0.00 0.00 84 1003.2
20260506072405 75 178 2.0 11.0 0.00 0.00 0.00 84 1003.2
20260506071854 75 233 6.0 12.0 0.00 0.00 0.00 84 1003.2
20260506071441 75 169 4.0 12.0 0.00 0.00 0.00 84 1003.3
20260506070949 75 163 4.0 11.0 0.00 0.00 0.00 84 1003.3
20260506070505 75 179 2.0 11.0 0.00 0.00 0.00 85 1003.3
20260506062436 76 143 3.0 10.0 0.00 0.00 0.00 84 1002.9
20260506061944 76 237 3.0 11.0 0.00 0.00 0.00 84 1003.0
20260506061408 76 156 2.0 11.0 0.00 0.00 0.00 84 1003.0
20260506060915 75 221 3.0 11.0 0.00 0.00 0.00 85 1002.9
20260506060415 75 187 4.0 10.0 0.00 0.00 0.00 85 1002.9
20260506050938 76 184 3.0 10.0 0.00 0.00 0.00 84 1003.4
20260506050436 76 164 2.0 11.0 0.00 0.00 0.00 84 1003.4
20260506044935 76 178 3.0 10.0 0.00 0.00 0.00 84 1003.1
20260506044419 76 165 2.0 10.0 0.00 0.00 0.00 84 1003.2
20260506043927 76 164 3.0 7.0 0.00 0.00 0.00 84 1003.2
20260506043434 76 146 2.0 10.0 0.00 0.00 0.00 84 1003.2
20260506042919 76 159 1.0 13.0 0.00 0.00 0.00 83 1002.9
20260506042426 76 192 3.0 13.0 0.00 0.00 0.00 83 1002.9
20260506041914 76 183 3.0 8.0 0.00 0.00 0.00 83 1002.9
20260506041439 76 169 4.0 7.0 0.00 0.00 0.00 83 1002.9
20260506040903 76 198 3.0 11.0 0.00 0.00 0.00 83 1002.9
20260506040401 77 185 3.0 11.0 0.00 0.00 0.00 83 1002.9
20260506035908 77 186 4.0 6.0 0.00 0.00 0.00 82 1002.8
20260506035352 77 205 1.0 3.0 0.00 0.00 0.00 81 1002.8
20260506034900 77 207 0.0 7.0 0.00 0.00 0.00 81 1002.8
20260506034406 77 188 0.0 7.0 0.00 0.00 0.00 81 1002.4
20260506033853 77 193 3.0 7.0 0.00 0.00 0.00 81 1002.4
20260506033401 77 206 2.0 7.0 0.00 0.00 0.00 81 1002.4
20260506032846 77 184 1.0 7.0 0.00 0.00 0.00 82 1002.4
20260506032332 76 196 4.0 7.0 0.00 0.00 0.00 82 1002.4
20260506031842 76 171 0.0 1.0 0.00 0.00 0.00 81 1002.4
20260506031348 76 177 0.0 1.0 0.00 0.00 0.00 81 1002.1
20260506030952 77 175 0.0 0.0 0.00 0.00 0.00 81 1002.2
20260506030449 77 169 0.0 3.0 0.00 0.00 0.00 81 1002.2
20260506025934 77 165 1.0 3.0 0.00 0.00 0.00 80 1002.1
20260506025442 77 190 0.0 3.0 0.00 0.00 0.00 80 1002.1
20260506024932 77 191 2.0 4.0 0.00 0.00 0.00 80 1002.1
20260506024439 77 180 0.0 5.0 0.00 0.00 0.00 79 1001.8
20260506023925 78 198 2.0 5.0 0.00 0.00 0.00 79 1001.8
20260506023452 78 153 0.0 3.0 0.00 0.00 0.00 79 1001.8
20260506022917 78 188 0.0 5.0 0.00 0.00 0.00 78 1001.5
20260506022424 78 182 1.0 5.0 0.00 0.00 0.00 78 1001.5
20260506021911 78 165 2.0 3.0 0.00 0.00 0.00 78 1001.5
20260506021417 78 182 1.0 4.0 0.00 0.00 0.00 77 1001.3
20260506020904 78 182 1.0 5.0 0.00 0.00 0.00 77 1001.3
20260506020402 79 170 1.0 5.0 0.00 0.00 0.00 77 1001.3
20260506015909 79 165 2.0 4.0 0.00 0.00 0.00 76 1000.9
20260506015356 79 140 0.0 6.0 0.00 0.00 0.00 76 1000.9
20260506014924 79 191 2.0 6.0 0.00 0.00 0.00 76 1000.9
20260506014349 79 155 3.0 6.0 0.00 0.00 0.00 76 1000.8
20260506013916 79 180 3.0 6.0 0.00 0.00 0.00 75 1000.8
20260506013342 79 174 3.0 6.0 0.00 0.00 0.00 75 1000.8
20260506012848 79 217 1.0 6.0 0.00 0.00 0.00 75 1000.8
20260506012333 80 175 3.0 7.0 0.00 0.00 0.00 75 1000.8
20260506011842 80 146 2.0 7.0 0.00 0.00 0.00 74 1000.8
20260506011327 80 360 3.0 6.0 0.00 0.00 0.00 74 1000.7
20260506010936 80 360 3.0 7.0 0.00 0.00 0.00 74 1000.7
20260506010454 80 181 3.0 7.0 0.00 0.00 0.00 73 1000.7
20260506005939 81 360 2.0 5.0 0.00 0.00 0.00 73 1000.7
20260506005446 81 360 3.0 10.0 0.00 0.00 0.00 73 1000.7
20260506004954 81 360 3.0 10.0 0.00 0.00 0.00 72 1000.7
20260506004439 82 131 5.0 10.0 0.00 0.00 0.00 71 1000.7
20260506003927 82 149 4.0 10.0 0.00 0.00 0.00 71 1000.7
20260506003434 82 137 3.0 9.0 0.00 0.00 0.00 71 1000.7
20260506002920 82 170 4.0 10.0 0.00 0.00 0.00 71 1000.8
20260506002427 82 146 5.0 10.0 0.00 0.00 0.00 71 1000.8
20260506001914 82 151 4.0 9.0 0.00 0.00 0.00 71 1000.8
20260506001420 82 169 4.0 9.0 0.00 0.00 0.00 71 1000.8
20260506000907 82 107 2.0 6.0 0.00 0.00 0.00 71 1000.8
20260506000405 82 151 3.0 11.0 0.00 0.00 0.00 71 1000.8
20260505235912 82 163 5.0 11.0 0.00 0.00 0.00 70 1000.7
20260505235358 82 159 2.0 7.0 0.00 0.00 0.00 71 1000.7
20260505234849 82 123 1.0 5.0 0.00 0.00 0.00 71 1000.7
20260505234355 83 149 3.0 7.0 0.00 0.00 0.00 70 1000.6
20260505233859 83 159 3.0 10.0 0.00 0.00 0.00 70 1000.6
20260505233347 83 118 5.0 10.0 0.00 0.00 0.00 70 1000.6
20260505232854 83 153 5.0 10.0 0.00 0.00 0.00 70 1000.6
20260505232340 83 195 3.0 10.0 0.00 0.00 0.00 69 1000.6
20260505231849 83 126 4.0 10.0 0.00 0.00 0.00 69 1000.6
20260505231334 83 158 3.0 10.0 0.00 0.00 0.00 69 1000.4
20260505230959 83 169 3.0 10.0 0.00 0.00 0.00 68 1000.4
20260505230457 83 128 6.0 10.0 0.00 0.00 0.00 68 1000.4
20260505225943 83 144 4.0 7.0 0.00 0.00 0.00 68 1000.3
20260505225450 83 263 2.0 7.0 0.00 0.00 0.00 68 1000.3
20260505224938 83 156 4.0 12.0 0.00 0.00 0.00 68 1000.3
20260505224443 84 123 4.0 12.0 0.00 0.00 0.00 68 1000.4
20260505223930 84 156 3.0 10.0 0.00 0.00 0.00 68 1000.4
20260505223421 84 130 3.0 11.0 0.00 0.00 0.00 67 1000.4
20260505222927 84 195 5.0 11.0 0.00 0.00 0.00 67 1000.1
20260505222414 84 119 5.0 11.0 0.00 0.00 0.00 67 1000.1
20260505221920 84 118 3.0 11.0 0.00 0.00 0.00 68 1000.1
20260505221408 84 139 7.0 11.0 0.00 0.00 0.00 67 1000.2
20260505220915 85 225 2.0 11.0 0.00 0.00 0.00 67 1000.3
20260505220408 85 154 4.0 11.0 0.00 0.00 0.00 67 1000.3
20260505215914 85 149 4.0 11.0 0.00 0.00 0.00 67 1000.5
20260505215402 85 155 6.0 11.0 0.00 0.00 0.00 66 1000.5
20260505214931 85 172 5.0 16.0 0.00 0.00 0.00 66 1000.5
20260505214356 85 202 5.0 16.0 0.00 0.00 0.00 66 1000.7
20260505213844 85 136 5.0 11.0 0.00 0.00 0.00 66 1000.7
20260505213351 86 149 3.0 13.0 0.00 0.00 0.00 66 1000.7
20260505212858 85 194 5.0 13.0 0.00 0.00 0.00 65 1000.7
20260505212344 85 133 6.0 11.0 0.00 0.00 0.00 64 1000.7
20260505211851 85 235 4.0 12.0 0.00 0.00 0.00 64 1000.7